Time,TemperatureF,DewpointF,PressureIn,WindDirection,WindDirectionDegrees,WindSpeedMPH,WindSpeedGustMPH,Humidity,HourlyPrecipIn,Conditions,Clouds,dailyrainin,SoftwareType,DateUTC
2013-02-01 00:00:00,9.7,3.6,30.06,WNW,292,11.4,11.5,76,0.00,CLR,SKC,0.00,WeatherDisplay:10.37,2013-02-01 05:00:00,
2013-02-01 00:01:00,9.7,3.6,30.06,WNW,292,11.4,11.4,76,0.00,CLR,SKC,0.00,WeatherDisplay:10.37,2013-02-01 05:01:00,
2013-02-01 00:03:00,9.7,3.6,30.06,WNW,292,11.4,11.4,76,0.00,CLR,SKC,0.00,WeatherDisplay:10.37,2013-02-01 05:03:00,
2013-02-01 00:08:00,9.7,3.6,30.07,West,270,9.7,11.5,76,0.00,CLR,SKC,0.00,WeatherDisplay:10.37,2013-02-01 05:08:00,
2013-02-01 00:13:00,9.5,3.5,30.07,WSW,248,10.7,11.5,76,0.00,CLR,SKC,0.00,WeatherDisplay:10.37,2013-02-01 05:13:00,
2013-02-01 00:18:00,9.3,3.3,30.07,SW,225,9.1,17.3,76,0.00,CLR,SKC,0.00,WeatherDisplay:10.37,2013-02-01 05:18:00,
2013-02-01 00:23:00,9.3,3.3,30.08,WNW,292,9.4,18.4,76,0.00,CLR,SKC,0.00,WeatherDisplay:10.37,2013-02-01 05:23:00,
2013-02-01 00:28:00,9.1,3.1,30.08,West,270,9.3,13.8,76,0.00,CLR,SKC,0.00,WeatherDisplay:10.37,2013-02-01 05:28:00,
2013-02-01 00:33:00,9.1,2.8,30.08,West,270,12.2,15.0,75,0.00,CLR,SKC,0.00,WeatherDisplay:10.37,2013-02-01 05:33:00,
2013-02-01 00:38:00,8.8,2.5,30.09,West,270,12.8,18.4,75,0.00,CLR,SKC,0.00,WeatherDisplay:10.37,2013-02-01 05:38:00,
2013-02-01 00:43:00,8.8,2.5,30.09,WNW,292,12.4,15.0,75,0.00,CLR,SKC,0.00,WeatherDisplay:10.37,2013-02-01 05:43:00,
2013-02-01 00:48:00,8.6,2.3,30.09,WNW,292,11.9,13.8,75,0.00,CLR,SKC,0.00,WeatherDisplay:10.37,2013-02-01 05:48:00,
2013-02-01 00:53:00,8.6,2.3,30.09,West,270,13.4,13.8,75,0.00,CLR,SKC,0.00,WeatherDisplay:10.37,2013-02-01 05:53:00,
2013-02-01 00:58:00,8.4,2.1,30.10,West,270,11.1,11.1,75,0.00,CLR,SKC,0.00,WeatherDisplay:10.37,2013-02-01 05:58:00,
2013-02-01 01:03:00,8.4,2.1,30.10,West,270,12.0,17.3,75,0.00,CLR,SKC,0.00,WeatherDisplay:10.37,2013-02-01 06:03:00,
2013-02-01 01:08:00,8.4,2.4,30.11,WNW,292,6.4,11.5,76,0.00,CLR,SKC,0.00,WeatherDisplay:10.37,2013-02-01 06:08:00,
2013-02-01 01:13:00,8.4,2.4,30.11,WNW,292,10.6,13.8,76,0.00,CLR,SKC,0.00,WeatherDisplay:10.37,2013-02-01 06:13:00,
2013-02-01 01:18:00,8.2,2.2,30.11,West,270,7.4,19.6,76,0.00,CLR,SKC,0.00,WeatherDisplay:10.37,2013-02-01 06:18:00,
2013-02-01 01:23:00,8.2,2.2,30.11,WSW,248,8.6,13.8,76,0.00,CLR,SKC,0.00,WeatherDisplay:10.37,2013-02-01 06:23:00,
2013-02-01 01:28:00,8.1,2.1,30.11,WNW,292,8.3,14.7,76,0.00,CLR,SKC,0.00,WeatherDisplay:10.37,2013-02-01 06:28:00,
2013-02-01 01:33:00,7.9,1.9,30.11,WSW,248,4.5,12.1,76,0.00,CLR,SKC,0.00,WeatherDisplay:10.37,2013-02-01 06:33:00,
2013-02-01 01:38:00,7.9,1.9,30.12,WSW,248,4.5,4.5,76,0.00,CLR,SKC,0.00,WeatherDisplay:10.37,2013-02-01 06:38:00,
2013-02-01 01:43:00,7.9,1.9,30.11,West,270,14.8,18.5,76,0.00,CLR,SKC,0.00,WeatherDisplay:10.37,2013-02-01 06:43:00,
2013-02-01 01:48:00,7.9,1.9,30.12,WNW,292,7.2,12.7,76,0.00,CLR,SKC,0.00,WeatherDisplay:10.37,2013-02-01 06:48:00,
2013-02-01 01:53:00,7.7,1.7,30.12,West,270,7.7,9.2,76,0.00,CLR,SKC,0.00,WeatherDisplay:10.37,2013-02-01 06:53:00,
2013-02-01 01:58:00,7.7,1.7,30.12,West,270,9.5,13.2,76,0.00,CLR,SKC,0.00,WeatherDisplay:10.37,2013-02-01 06:58:00,
2013-02-01 02:03:00,7.7,1.7,30.13,WNW,292,9.3,9.3,76,0.00,CLR,SKC,0.00,WeatherDisplay:10.37,2013-02-01 07:03:00,
2013-02-01 02:08:00,7.7,1.7,30.13,West,270,12.7,15.0,76,0.00,CLR,SKC,0.00,WeatherDisplay:10.37,2013-02-01 07:08:00,
2013-02-01 02:13:00,7.7,1.7,30.13,West,270,10.2,17.3,76,0.00,CLR,SKC,0.00,WeatherDisplay:10.37,2013-02-01 07:13:00,
2013-02-01 02:18:00,7.5,1.5,30.14,SW,225,8.2,13.8,76,0.00,CLR,SKC,0.00,WeatherDisplay:10.37,2013-02-01 07:18:00,
2013-02-01 02:23:00,7.5,1.2,30.14,West,270,5.9,10.4,75,0.00,CLR,SKC,0.00,WeatherDisplay:10.37,2013-02-01 07:23:00,
2013-02-01 02:28:00,7.5,1.5,30.14,WNW,292,11.7,11.7,76,0.00,CLR,SKC,0.00,WeatherDisplay:10.37,2013-02-01 07:28:00,
2013-02-01 02:33:00,7.5,1.5,30.15,WSW,248,6.4,10.4,76,0.00,CLR,SKC,0.00,WeatherDisplay:10.37,2013-02-01 07:33:00,
2013-02-01 02:38:00,7.5,1.2,30.16,WSW,248,11.0,17.3,75,0.00,CLR,SKC,0.00,WeatherDisplay:10.37,2013-02-01 07:38:00,
2013-02-01 02:43:00,7.3,1.1,30.15,WNW,292,6.9,10.4,75,0.00,CLR,SKC,0.00,WeatherDisplay:10.37,2013-02-01 07:43:00,
2013-02-01 02:48:00,7.3,1.1,30.15,West,270,7.7,11.5,75,0.00,CLR,SKC,0.00,WeatherDisplay:10.37,2013-02-01 07:48:00,
2013-02-01 02:53:00,7.3,1.1,30.15,West,270,7.6,7.6,75,0.00,CLR,SKC,0.00,WeatherDisplay:10.37,2013-02-01 07:53:00,
2013-02-01 02:58:00,7.3,1.4,30.16,WSW,248,12.3,15.0,76,0.00,CLR,SKC,0.00,WeatherDisplay:10.37,2013-02-01 07:58:00,
2013-02-01 03:03:00,7.2,1.2,30.16,West,270,7.8,18.4,76,0.00,CLR,SKC,0.00,WeatherDisplay:10.37,2013-02-01 08:03:00,
2013-02-01 03:08:00,7.0,1.0,30.17,WNW,292,10.2,13.8,76,0.00,CLR,SKC,0.00,WeatherDisplay:10.37,2013-02-01 08:08:00,
2013-02-01 03:13:00,7.0,1.0,30.17,WSW,248,10.9,20.7,76,0.00,CLR,SKC,0.00,WeatherDisplay:10.37,2013-02-01 08:13:00,
2013-02-01 03:18:00,7.0,1.0,30.18,West,270,8.8,12.7,76,0.00,CLR,SKC,0.00,WeatherDisplay:10.37,2013-02-01 08:18:00,
2013-02-01 03:23:00,7.0,1.0,30.17,WSW,248,9.6,10.4,76,0.00,CLR,SKC,0.00,WeatherDisplay:10.37,2013-02-01 08:23:00,
2013-02-01 03:28:00,7.2,1.2,30.18,West,270,6.6,11.5,76,0.00,CLR,SKC,0.00,WeatherDisplay:10.37,2013-02-01 08:28:00,
2013-02-01 03:33:00,7.2,1.2,30.17,West,270,10.1,10.4,76,0.00,CLR,SKC,0.00,WeatherDisplay:10.37,2013-02-01 08:33:00,
2013-02-01 03:38:00,7.2,1.2,30.18,West,270,10.8,12.7,76,0.00,CLR,SKC,0.00,WeatherDisplay:10.37,2013-02-01 08:38:00,
2013-02-01 03:43:00,7.2,1.2,30.18,WNW,292,10.2,16.8,76,0.00,CLR,SKC,0.00,WeatherDisplay:10.37,2013-02-01 08:43:00,
2013-02-01 03:48:00,7.2,1.2,30.18,West,270,8.1,9.2,76,0.00,CLR,SKC,0.00,WeatherDisplay:10.37,2013-02-01 08:48:00,
2013-02-01 03:53:00,7.0,1.0,30.18,WNW,292,5.7,10.4,76,0.00,CLR,SKC,0.00,WeatherDisplay:10.37,2013-02-01 08:53:00,
2013-02-01 03:58:00,7.0,1.0,30.18,WSW,248,11.5,15.0,76,0.00,CLR,SKC,0.00,WeatherDisplay:10.37,2013-02-01 08:58:00,
2013-02-01 04:03:00,7.0,1.0,30.19,WNW,292,12.0,12.0,76,0.00,CLR,SKC,0.00,WeatherDisplay:10.37,2013-02-01 09:03:00,
2013-02-01 04:08:00,7.0,1.0,30.19,WNW,292,9.8,18.4,76,0.00,CLR,SKC,0.00,WeatherDisplay:10.37,2013-02-01 09:08:00,
2013-02-01 04:13:00,7.0,1.0,30.19,WNW,292,8.3,13.8,76,0.00,CLR,SKC,0.00,WeatherDisplay:10.37,2013-02-01 09:13:00,
2013-02-01 04:18:00,7.0,1.0,30.19,West,270,9.4,13.8,76,0.00,CLR,SKC,0.00,WeatherDisplay:10.37,2013-02-01 09:18:00,
2013-02-01 04:23:00,7.0,1.0,30.19,WSW,248,6.7,11.5,76,0.00,CLR,SKC,0.00,WeatherDisplay:10.37,2013-02-01 09:23:00,
2013-02-01 04:28:00,7.0,1.0,30.18,WNW,292,11.0,11.0,76,0.00,CLR,SKC,0.00,WeatherDisplay:10.37,2013-02-01 09:28:00,
2013-02-01 04:33:00,6.6,0.7,30.19,WNW,292,6.6,16.1,76,0.00,CLR,SKC,0.00,WeatherDisplay:10.37,2013-02-01 09:33:00,
2013-02-01 04:38:00,6.6,0.7,30.19,WSW,248,9.5,9.5,76,0.00,CLR,SKC,0.00,WeatherDisplay:10.37,2013-02-01 09:38:00,
2013-02-01 04:43:00,6.6,0.7,30.19,West,270,9.3,15.0,76,0.00,CLR,SKC,0.00,WeatherDisplay:10.37,2013-02-01 09:43:00,
2013-02-01 04:48:00,6.6,0.7,30.18,West,270,11.4,12.7,76,0.00,CLR,SKC,0.00,WeatherDisplay:10.37,2013-02-01 09:48:00,
2013-02-01 04:53:00,6.4,0.5,30.18,WSW,248,11.5,16.1,76,0.00,CLR,SKC,0.00,WeatherDisplay:10.37,2013-02-01 09:53:00,
2013-02-01 04:58:00,6.4,0.2,30.19,West,270,11.1,15.9,75,0.00,CLR,SKC,0.00,WeatherDisplay:10.37,2013-02-01 09:58:00,
2013-02-01 05:03:00,6.1,-0.1,30.19,WNW,292,10.0,13.8,75,0.00,CLR,SKC,0.00,WeatherDisplay:10.37,2013-02-01 10:03:00,
2013-02-01 05:08:00,6.1,-0.1,30.19,West,270,14.2,14.2,75,0.00,CLR,SKC,0.00,WeatherDisplay:10.37,2013-02-01 10:08:00,
2013-02-01 05:13:00,6.1,-0.1,30.18,WNW,292,14.6,21.9,75,0.00,CLR,SKC,0.00,WeatherDisplay:10.37,2013-02-01 10:13:00,
2013-02-01 05:18:00,6.1,-0.1,30.19,West,270,11.9,18.4,75,0.00,CLR,SKC,0.00,WeatherDisplay:10.37,2013-02-01 10:18:00,
2013-02-01 05:23:00,6.1,-0.1,30.20,WSW,248,14.3,18.4,75,0.00,CLR,SKC,0.00,WeatherDisplay:10.37,2013-02-01 10:23:00,
2013-02-01 05:28:00,5.9,-0.3,30.20,West,270,7.8,16.3,75,0.00,CLR,SKC,0.00,WeatherDisplay:10.37,2013-02-01 10:28:00,
2013-02-01 05:33:00,5.9,-0.3,30.20,WSW,248,7.4,13.8,75,0.00,CLR,SKC,0.00,WeatherDisplay:10.37,2013-02-01 10:33:00,
2013-02-01 05:38:00,5.9,-0.3,30.20,West,270,7.7,7.7,75,0.00,CLR,SKC,0.00,WeatherDisplay:10.37,2013-02-01 10:38:00,
2013-02-01 05:43:00,5.9,0.0,30.21,WSW,248,7.9,10.4,76,0.00,CLR,SKC,0.00,WeatherDisplay:10.37,2013-02-01 10:43:00,
2013-02-01 05:48:00,5.9,0.0,30.21,WSW,248,11.7,11.7,76,0.00,CLR,SKC,0.00,WeatherDisplay:10.37,2013-02-01 10:48:00,
2013-02-01 05:53:00,5.9,0.0,30.21,West,270,10.2,16.1,76,0.00,CLR,SKC,0.00,WeatherDisplay:10.37,2013-02-01 10:53:00,
2013-02-01 05:58:00,5.9,0.0,30.21,West,270,8.5,12.7,76,0.00,CLR,SKC,0.00,WeatherDisplay:10.37,2013-02-01 10:58:00,
2013-02-01 06:03:00,6.1,0.1,30.20,West,270,8.3,13.8,76,0.00,CLR,SKC,0.00,WeatherDisplay:10.37,2013-02-01 11:03:00,
2013-02-01 06:08:00,6.1,0.1,30.21,West,270,9.2,16.1,76,0.00,CLR,SKC,0.00,WeatherDisplay:10.37,2013-02-01 11:08:00,
2013-02-01 06:13:00,6.1,0.1,30.21,WSW,248,8.7,12.7,76,0.00,CLR,SKC,0.00,WeatherDisplay:10.37,2013-02-01 11:13:00,
2013-02-01 06:18:00,6.1,0.1,30.21,West,270,8.5,12.7,76,0.00,CLR,SKC,0.00,WeatherDisplay:10.37,2013-02-01 11:18:00,
2013-02-01 06:23:00,6.1,0.1,30.21,West,270,10.1,16.1,76,0.00,CLR,SKC,0.00,WeatherDisplay:10.37,2013-02-01 11:23:00,
2013-02-01 06:28:00,6.1,0.1,30.21,WSW,248,9.0,9.2,76,0.00,CLR,SKC,0.00,WeatherDisplay:10.37,2013-02-01 11:28:00,
2013-02-01 06:33:00,5.9,0.0,30.21,West,270,7.9,11.5,76,0.00,CLR,SKC,0.00,WeatherDisplay:10.37,2013-02-01 11:33:00,
2013-02-01 06:38:00,5.9,0.0,30.21,WSW,248,11.2,16.1,76,0.00,CLR,SKC,0.00,WeatherDisplay:10.37,2013-02-01 11:38:00,
2013-02-01 06:43:00,5.9,0.0,30.21,West,270,7.1,16.1,76,0.00,CLR,SKC,0.00,WeatherDisplay:10.37,2013-02-01 11:43:00,
2013-02-01 06:48:00,5.7,-0.2,30.22,West,270,6.6,9.2,76,0.00,CLR,SKC,0.00,WeatherDisplay:10.37,2013-02-01 11:48:00,
2013-02-01 06:53:00,5.7,-0.2,30.22,West,270,8.4,16.1,76,0.00,CLR,SKC,0.00,WeatherDisplay:10.37,2013-02-01 11:53:00,
2013-02-01 06:58:00,5.9,0.0,30.22,WSW,248,7.5,9.4,76,0.00,CLR,SKC,0.00,WeatherDisplay:10.37,2013-02-01 11:58:00,
2013-02-01 07:03:00,5.7,-0.2,30.22,West,270,4.9,9.2,76,0.00,CLR,SKC,0.00,WeatherDisplay:10.37,2013-02-01 12:03:00,
2013-02-01 07:08:00,5.5,-0.4,30.22,SW,225,6.6,10.7,76,0.00,CLR,SKC,0.00,WeatherDisplay:10.37,2013-02-01 12:08:00,
2013-02-01 07:13:00,5.5,-0.4,30.22,WNW,292,9.8,12.7,76,0.00,CLR,SKC,0.00,WeatherDisplay:10.37,2013-02-01 12:13:00,
2013-02-01 07:18:00,5.5,-0.4,30.23,SW,225,8.2,10.4,76,0.00,CLR,SKC,0.00,WeatherDisplay:10.37,2013-02-01 12:18:00,
2013-02-01 07:23:00,5.5,-0.4,30.23,West,270,4.7,13.0,76,0.00,CLR,SKC,0.00,WeatherDisplay:10.37,2013-02-01 12:23:00,
2013-02-01 07:28:00,5.4,-0.6,30.23,SSW,202,4.6,12.7,76,0.00,CLR,SKC,0.00,WeatherDisplay:10.37,2013-02-01 12:28:00,
2013-02-01 07:33:00,5.4,-0.6,30.23,WSW,248,4.3,8.1,76,0.00,CLR,SKC,0.00,WeatherDisplay:10.37,2013-02-01 12:33:00,
2013-02-01 07:38:00,5.2,-0.7,30.23,West,270,2.4,4.6,76,0.00,CLR,SKC,0.00,WeatherDisplay:10.37,2013-02-01 12:38:00,
2013-02-01 07:43:00,5.2,-0.7,30.23,WNW,292,7.0,9.2,76,0.00,CLR,SKC,0.00,WeatherDisplay:10.37,2013-02-01 12:43:00,
2013-02-01 07:48:00,5.4,-0.3,30.24,SW,225,6.0,6.3,77,0.00,CLR,SKC,0.00,WeatherDisplay:10.37,2013-02-01 12:48:00,
2013-02-01 07:53:00,5.5,-0.1,30.24,West,270,6.4,12.7,77,0.00,CLR,SKC,0.00,WeatherDisplay:10.37,2013-02-01 12:53:00,
2013-02-01 07:58:00,5.5,-0.1,30.24,West,270,7.8,10.4,77,0.00,CLR,SKC,0.00,WeatherDisplay:10.37,2013-02-01 12:58:00,
2013-02-01 08:03:00,5.5,-0.1,30.24,West,270,5.8,12.7,77,0.00,CLR,SKC,0.00,WeatherDisplay:10.37,2013-02-01 13:03:00,
2013-02-01 08:08:00,5.7,0.1,30.24,WNW,292,8.1,8.1,77,0.00,CLR,SKC,0.00,WeatherDisplay:10.37,2013-02-01 13:08:00,
2013-02-01 08:13:00,5.7,0.1,30.24,WSW,248,5.1,10.4,77,0.00,CLR,SKC,0.00,WeatherDisplay:10.37,2013-02-01 13:13:00,
2013-02-01 08:18:00,5.9,0.2,30.24,West,270,6.6,17.3,77,0.00,CLR,SKC,0.00,WeatherDisplay:10.37,2013-02-01 13:18:00,
2013-02-01 08:23:00,5.9,0.2,30.24,West,270,5.1,11.5,77,0.00,CLR,SKC,0.00,WeatherDisplay:10.37,2013-02-01 13:23:00,
2013-02-01 08:28:00,5.9,0.2,30.25,West,270,7.8,12.7,77,0.00,CLR,SKC,0.00,WeatherDisplay:10.37,2013-02-01 13:28:00,
2013-02-01 08:33:00,5.9,0.0,30.25,SW,225,6.0,13.0,76,0.00,CLR,SKC,0.00,WeatherDisplay:10.37,2013-02-01 13:33:00,
2013-02-01 08:38:00,5.9,0.0,30.25,WNW,292,4.1,8.1,76,0.00,CLR,SKC,0.00,WeatherDisplay:10.37,2013-02-01 13:38:00,
2013-02-01 08:43:00,6.1,0.4,30.26,West,270,5.7,10.4,77,0.00,CLR,SKC,0.00,WeatherDisplay:10.37,2013-02-01 13:43:00,
2013-02-01 08:48:00,6.4,0.8,30.26,West,270,5.6,12.7,77,0.00,CLR,SKC,0.00,WeatherDisplay:10.37,2013-02-01 13:48:00,
2013-02-01 08:53:00,6.6,0.7,30.26,WSW,248,5.3,11.5,76,0.00,CLR,SKC,0.00,WeatherDisplay:10.37,2013-02-01 13:53:00,
2013-02-01 08:58:00,6.6,0.7,30.26,WSW,248,4.0,9.2,76,0.00,CLR,SKC,0.00,WeatherDisplay:10.37,2013-02-01 13:58:00,
2013-02-01 09:03:00,7.0,1.0,30.26,West,270,4.1,5.8,76,0.00,CLR,SKC,0.00,WeatherDisplay:10.37,2013-02-01 14:03:00,
2013-02-01 09:08:00,7.3,1.4,30.27,SW,225,4.6,8.1,76,0.00,CLR,SKC,0.00,WeatherDisplay:10.37,2013-02-01 14:08:00,
2013-02-01 09:13:00,7.5,1.5,30.27,SW,225,10.7,13.8,76,0.00,CLR,SKC,0.00,WeatherDisplay:10.37,2013-02-01 14:13:00,
2013-02-01 09:18:00,7.7,1.7,30.27,SW,225,7.1,9.2,76,0.00,CLR,SKC,0.00,WeatherDisplay:10.37,2013-02-01 14:18:00,
2013-02-01 09:23:00,8.1,2.1,30.28,WSW,248,9.2,13.8,76,0.00,CLR,SKC,0.00,WeatherDisplay:10.37,2013-02-01 14:23:00,
2013-02-01 09:28:00,8.2,1.9,30.28,WSW,248,6.7,12.7,75,0.00,CLR,SKC,0.00,WeatherDisplay:10.37,2013-02-01 14:28:00,
2013-02-01 09:33:00,8.4,2.1,30.28,WSW,248,9.2,13.8,75,0.00,CLR,SKC,0.00,WeatherDisplay:10.37,2013-02-01 14:33:00,
2013-02-01 09:38:00,8.6,2.3,30.28,West,270,10.9,16.1,75,0.00,CLR,SKC,0.00,WeatherDisplay:10.37,2013-02-01 14:38:00,
2013-02-01 09:43:00,9.1,2.8,30.29,SW,225,8.1,11.5,75,0.00,CLR,SKC,0.00,WeatherDisplay:10.37,2013-02-01 14:43:00,
2013-02-01 09:48:00,9.3,2.7,30.29,WSW,248,8.8,13.8,74,0.00,CLR,SKC,0.00,WeatherDisplay:10.37,2013-02-01 14:48:00,
2013-02-01 09:53:00,9.3,2.7,30.29,West,270,7.4,10.4,74,0.00,CLR,SKC,0.00,WeatherDisplay:10.37,2013-02-01 14:53:00,
2013-02-01 09:58:00,9.5,2.9,30.29,WSW,248,5.2,11.5,74,0.00,CLR,SKC,0.00,WeatherDisplay:10.37,2013-02-01 14:58:00,
2013-02-01 10:03:00,9.7,3.1,30.30,SW,225,5.5,9.2,74,0.00,CLR,SKC,0.00,WeatherDisplay:10.37,2013-02-01 15:03:00,
2013-02-01 10:08:00,10.2,3.6,30.30,SSW,202,7.3,12.3,74,0.00,CLR,SKC,0.00,WeatherDisplay:10.37,2013-02-01 15:08:00,
2013-02-01 10:13:00,10.6,3.9,30.30,WSW,248,11.0,16.1,74,0.00,CLR,SKC,0.00,WeatherDisplay:10.37,2013-02-01 15:13:00,
2013-02-01 10:18:00,10.6,3.9,30.31,WSW,248,8.8,12.1,74,0.00,CLR,SKC,0.00,WeatherDisplay:10.37,2013-02-01 15:18:00,
2013-02-01 10:23:00,10.2,3.6,30.31,WSW,248,4.3,5.8,74,0.00,CLR,SKC,0.00,WeatherDisplay:10.37,2013-02-01 15:23:00,
2013-02-01 10:28:00,10.4,3.5,30.31,WSW,248,5.4,9.2,73,0.00,CLR,SKC,0.00,WeatherDisplay:10.37,2013-02-01 15:28:00,
2013-02-01 10:33:00,10.8,4.1,30.31,West,270,7.4,11.5,74,0.00,CLR,SKC,0.00,WeatherDisplay:10.37,2013-02-01 15:33:00,
2013-02-01 10:38:00,11.1,4.4,30.31,WSW,248,5.0,8.1,74,0.00,CLR,SKC,0.00,WeatherDisplay:10.37,2013-02-01 15:38:00,
2013-02-01 10:43:00,11.7,4.7,30.31,WNW,292,5.3,6.3,73,0.00,CLR,SKC,0.00,WeatherDisplay:10.37,2013-02-01 15:43:00,
2013-02-01 10:48:00,11.8,4.8,30.31,WSW,248,4.5,4.6,73,0.00,CLR,SKC,0.00,WeatherDisplay:10.37,2013-02-01 15:48:00,
2013-02-01 10:53:00,12.0,4.7,30.32,SW,225,7.4,11.5,72,0.00,CLR,SKC,0.00,WeatherDisplay:10.37,2013-02-01 15:53:00,
2013-02-01 10:58:00,12.2,4.9,30.32,SW,225,6.8,9.2,72,0.00,CLR,SKC,0.00,WeatherDisplay:10.37,2013-02-01 15:58:00,
2013-02-01 11:03:00,12.0,4.7,30.32,West,270,7.8,11.5,72,0.00,CLR,SKC,0.00,WeatherDisplay:10.37,2013-02-01 16:03:00,
2013-02-01 11:08:00,12.0,4.7,30.33,SW,225,9.1,11.5,72,0.00,CLR,SKC,0.00,WeatherDisplay:10.37,2013-02-01 16:08:00,
2013-02-01 11:13:00,12.0,4.7,30.33,WSW,248,6.3,12.7,72,0.00,CLR,SKC,0.00,WeatherDisplay:10.37,2013-02-01 16:13:00,
2013-02-01 11:18:00,12.2,4.9,30.34,West,270,5.2,5.2,72,0.00,CLR,SKC,0.00,WeatherDisplay:10.37,2013-02-01 16:18:00,
2013-02-01 11:23:00,12.7,5.4,30.34,West,270,6.9,8.1,72,0.00,CLR,SKC,0.00,WeatherDisplay:10.37,2013-02-01 16:23:00,
2013-02-01 11:28:00,12.9,5.3,30.34,West,270,5.4,9.2,71,0.00,CLR,SKC,0.00,WeatherDisplay:10.37,2013-02-01 16:28:00,
2013-02-01 11:33:00,13.3,5.6,30.34,WNW,292,10.7,16.1,71,0.00,CLR,SKC,0.00,WeatherDisplay:10.37,2013-02-01 16:33:00,
2013-02-01 11:38:00,13.5,5.8,30.34,SSW,202,4.7,11.5,71,0.00,CLR,SKC,0.00,WeatherDisplay:10.37,2013-02-01 16:38:00,
2013-02-01 11:43:00,13.6,6.0,30.34,WSW,248,5.2,10.4,71,0.00,CLR,SKC,0.00,WeatherDisplay:10.37,2013-02-01 16:43:00,
2013-02-01 11:48:00,13.8,6.1,30.34,WSW,248,6.7,10.4,71,0.00,CLR,SKC,0.00,WeatherDisplay:10.37,2013-02-01 16:48:00,
2013-02-01 11:53:00,14.4,6.7,30.34,West,270,6.0,8.1,71,0.00,CLR,SKC,0.00,WeatherDisplay:10.37,2013-02-01 16:53:00,
2013-02-01 11:58:00,14.5,6.5,30.33,WSW,248,6.3,11.5,70,0.00,CLR,SKC,0.00,WeatherDisplay:10.37,2013-02-01 16:58:00,
2013-02-01 12:03:00,14.7,6.7,30.34,WSW,248,8.5,10.4,70,0.00,CLR,SKC,0.00,WeatherDisplay:10.37,2013-02-01 17:03:00,
2013-02-01 12:08:00,14.4,6.4,30.34,West,270,8.0,12.7,70,0.00,CLR,SKC,0.00,WeatherDisplay:10.37,2013-02-01 17:08:00,
2013-02-01 12:13:00,14.4,6.4,30.33,West,270,7.0,8.3,70,0.00,CLR,SKC,0.00,WeatherDisplay:10.37,2013-02-01 17:13:00,
2013-02-01 12:18:00,14.7,6.7,30.33,West,270,2.9,9.2,70,0.00,CLR,SKC,0.00,WeatherDisplay:10.37,2013-02-01 17:18:00,
2013-02-01 12:23:00,15.1,7.1,30.34,SW,225,3.0,9.2,70,0.00,CLR,SKC,0.00,WeatherDisplay:10.37,2013-02-01 17:23:00,
2013-02-01 12:28:00,15.3,6.9,30.34,West,270,6.3,11.5,69,0.00,CLR,SKC,0.00,WeatherDisplay:10.37,2013-02-01 17:28:00,
2013-02-01 12:33:00,15.1,6.7,30.34,West,270,5.8,10.4,69,0.00,CLR,SKC,0.00,WeatherDisplay:10.37,2013-02-01 17:33:00,
2013-02-01 12:38:00,15.4,7.1,30.33,West,270,6.5,6.9,69,0.00,CLR,SKC,0.00,WeatherDisplay:10.37,2013-02-01 17:38:00,
2013-02-01 12:43:00,16.0,7.9,30.34,SW,225,7.5,9.4,70,0.00,CLR,SKC,0.00,WeatherDisplay:10.37,2013-02-01 17:43:00,
2013-02-01 12:48:00,16.9,8.5,30.33,WSW,248,9.2,13.8,69,0.00,CLR,SKC,0.00,WeatherDisplay:10.37,2013-02-01 17:48:00,
2013-02-01 12:53:00,17.4,9.0,30.33,WSW,248,10.2,13.8,69,0.00,CLR,SKC,0.00,WeatherDisplay:10.37,2013-02-01 17:53:00,
2013-02-01 12:58:00,17.4,8.7,30.32,West,270,7.5,11.5,68,0.00,CLR,SKC,0.00,WeatherDisplay:10.37,2013-02-01 17:58:00,
2013-02-01 13:03:00,16.9,8.1,30.32,West,270,4.1,5.8,68,0.00,CLR,SKC,0.00,WeatherDisplay:10.37,2013-02-01 18:03:00,
2013-02-01 13:08:00,16.9,8.1,30.32,WSW,248,6.6,13.9,68,0.00,CLR,SKC,0.00,WeatherDisplay:10.37,2013-02-01 18:08:00,
2013-02-01 13:13:00,17.4,8.7,30.32,West,270,4.6,13.4,68,0.00,CLR,SKC,0.00,WeatherDisplay:10.37,2013-02-01 18:13:00,
2013-02-01 13:18:00,17.4,8.7,30.31,WSW,248,6.5,11.5,68,0.00,CLR,SKC,0.00,WeatherDisplay:10.37,2013-02-01 18:18:00,
2013-02-01 13:23:00,17.4,8.7,30.31,SW,225,3.3,5.6,68,0.00,CLR,SKC,0.00,WeatherDisplay:10.37,2013-02-01 18:23:00,
2013-02-01 13:28:00,17.4,8.7,30.31,WSW,248,6.2,10.4,68,0.00,CLR,SKC,0.00,WeatherDisplay:10.37,2013-02-01 18:28:00,
2013-02-01 13:33:00,17.4,8.7,30.31,WNW,292,9.7,15.0,68,0.00,CLR,SKC,0.00,WeatherDisplay:10.37,2013-02-01 18:33:00,
2013-02-01 13:38:00,17.8,9.0,30.31,SSW,202,5.9,9.2,68,0.00,CLR,SKC,0.00,WeatherDisplay:10.37,2013-02-01 18:38:00,
2013-02-01 13:43:00,18.1,9.0,30.31,WSW,248,6.6,16.1,67,0.00,CLR,SKC,0.00,WeatherDisplay:10.37,2013-02-01 18:43:00,
2013-02-01 13:48:00,18.7,9.5,30.31,SSW,202,9.7,12.7,67,0.00,CLR,SKC,0.00,WeatherDisplay:10.37,2013-02-01 18:48:00,
2013-02-01 13:53:00,19.0,9.9,30.30,WSW,248,6.9,10.4,67,0.00,CLR,SKC,0.00,WeatherDisplay:10.37,2013-02-01 18:53:00,
2013-02-01 13:58:00,18.9,9.4,30.30,West,270,10.9,16.1,66,0.00,CLR,SKC,0.00,WeatherDisplay:10.37,2013-02-01 18:58:00,
2013-02-01 14:03:00,18.7,9.2,30.31,SW,225,11.3,15.0,66,0.00,CLR,SKC,0.00,WeatherDisplay:10.37,2013-02-01 19:03:00,
2013-02-01 14:08:00,18.5,9.0,30.30,SW,225,5.2,8.1,66,0.00,CLR,SKC,0.00,WeatherDisplay:10.37,2013-02-01 19:08:00,
2013-02-01 14:13:00,19.2,10.0,30.30,SW,225,10.7,18.4,67,0.00,CLR,SKC,0.00,WeatherDisplay:10.37,2013-02-01 19:13:00,
2013-02-01 14:18:00,19.9,10.4,30.29,West,270,6.8,9.2,66,0.00,CLR,SKC,0.00,WeatherDisplay:10.37,2013-02-01 19:18:00,
2013-02-01 14:23:00,20.3,10.4,30.29,West,270,9.5,12.7,65,0.00,CLR,SKC,0.00,WeatherDisplay:10.37,2013-02-01 19:23:00,
2013-02-01 14:28:00,19.9,10.1,30.29,SSW,202,10.3,13.8,65,0.00,CLR,SKC,0.00,WeatherDisplay:10.37,2013-02-01 19:28:00,
2013-02-01 14:33:00,19.9,10.1,30.29,SSW,202,8.8,11.5,65,0.00,CLR,SKC,0.00,WeatherDisplay:10.37,2013-02-01 19:33:00,
2013-02-01 14:38:00,19.9,10.1,30.29,WNW,292,4.8,8.1,65,0.00,CLR,SKC,0.00,WeatherDisplay:10.37,2013-02-01 19:38:00,
2013-02-01 14:43:00,19.9,10.1,30.29,SW,225,9.3,15.0,65,0.00,CLR,SKC,0.00,WeatherDisplay:10.37,2013-02-01 19:43:00,
2013-02-01 14:48:00,19.9,10.1,30.29,West,270,9.5,12.7,65,0.00,CLR,SKC,0.00,WeatherDisplay:10.37,2013-02-01 19:48:00,
2013-02-01 14:53:00,20.1,10.2,30.29,WSW,248,6.4,11.5,65,0.00,CLR,SKC,0.00,WeatherDisplay:10.37,2013-02-01 19:53:00,
2013-02-01 14:58:00,20.1,9.9,30.28,SSW,202,9.0,15.0,64,0.00,CLR,SKC,0.00,WeatherDisplay:10.37,2013-02-01 19:58:00,
2013-02-01 15:03:00,20.1,10.2,30.28,WSW,248,7.7,12.7,65,0.00,CLR,SKC,0.00,WeatherDisplay:10.37,2013-02-01 20:03:00,
2013-02-01 15:08:00,19.9,10.1,30.28,SW,225,6.8,10.4,65,0.00,CLR,SKC,0.00,WeatherDisplay:10.37,2013-02-01 20:08:00,
2013-02-01 15:13:00,19.9,10.1,30.28,SSW,202,7.7,12.7,65,0.00,CLR,SKC,0.00,WeatherDisplay:10.37,2013-02-01 20:13:00,
2013-02-01 15:18:00,19.6,9.7,30.28,SW,225,8.2,10.4,65,0.00,CLR,SKC,0.00,WeatherDisplay:10.37,2013-02-01 20:18:00,
2013-02-01 15:23:00,19.6,9.7,30.28,WSW,248,5.6,10.4,65,0.00,CLR,SKC,0.00,WeatherDisplay:10.37,2013-02-01 20:23:00,
2013-02-01 15:28:00,19.6,9.7,30.27,SSE,158,4.8,10.4,65,0.00,CLR,SKC,0.00,WeatherDisplay:10.37,2013-02-01 20:28:00,
2013-02-01 15:33:00,19.6,9.7,30.28,SW,225,7.2,10.4,65,0.00,CLR,SKC,0.00,WeatherDisplay:10.37,2013-02-01 20:33:00,
2013-02-01 15:38:00,19.4,9.5,30.27,SW,225,6.9,10.4,65,0.00,CLR,SKC,0.00,WeatherDisplay:10.37,2013-02-01 20:38:00,
2013-02-01 15:43:00,19.2,9.4,30.27,SW,225,9.6,13.8,65,0.00,CLR,SKC,0.00,WeatherDisplay:10.37,2013-02-01 20:43:00,
2013-02-01 15:48:00,19.0,9.2,30.26,WNW,292,3.7,4.6,65,0.00,CLR,SKC,0.00,WeatherDisplay:10.37,2013-02-01 20:48:00,
2013-02-01 15:53:00,19.2,9.7,30.26,West,270,5.9,10.4,66,0.00,CLR,SKC,0.00,WeatherDisplay:10.37,2013-02-01 20:53:00,
2013-02-01 15:58:00,19.2,9.4,30.26,SW,225,8.1,12.1,65,0.00,CLR,SKC,0.00,WeatherDisplay:10.37,2013-02-01 20:58:00,
2013-02-01 16:03:00,19.4,9.5,30.25,SSW,202,6.7,10.4,65,0.00,CLR,SKC,0.00,WeatherDisplay:10.37,2013-02-01 21:03:00,
2013-02-01 16:08:00,19.6,9.7,30.24,WSW,248,5.3,8.1,65,0.00,CLR,SKC,0.00,WeatherDisplay:10.37,2013-02-01 21:08:00,
2013-02-01 16:13:00,19.4,9.5,30.24,SW,225,5.9,11.8,65,0.00,CLR,SKC,0.00,WeatherDisplay:10.37,2013-02-01 21:13:00,
2013-02-01 16:18:00,19.4,9.9,30.24,SW,225,5.1,6.9,66,0.00,CLR,SKC,0.00,WeatherDisplay:10.37,2013-02-01 21:18:00,
2013-02-01 16:23:00,19.6,10.1,30.23,WSW,248,7.3,10.4,66,0.00,CLR,SKC,0.00,WeatherDisplay:10.37,2013-02-01 21:23:00,
2013-02-01 16:28:00,19.8,9.9,30.24,West,270,5.2,8.1,65,0.00,CLR,SKC,0.00,WeatherDisplay:10.37,2013-02-01 21:28:00,
2013-02-01 16:33:00,19.6,9.7,30.23,SW,225,6.0,9.2,65,0.00,CLR,SKC,0.00,WeatherDisplay:10.37,2013-02-01 21:33:00,
2013-02-01 16:38:00,19.6,9.7,30.23,SW,225,3.6,11.5,65,0.00,CLR,SKC,0.00,WeatherDisplay:10.37,2013-02-01 21:38:00,
2013-02-01 16:43:00,19.6,9.7,30.23,SW,225,7.5,10.4,65,0.00,CLR,SKC,0.00,WeatherDisplay:10.37,2013-02-01 21:43:00,
2013-02-01 16:48:00,19.4,9.5,30.23,SSW,202,6.9,11.5,65,0.00,CLR,SKC,0.00,WeatherDisplay:10.37,2013-02-01 21:48:00,
2013-02-01 16:53:00,19.6,10.1,30.23,WSW,248,9.2,11.5,66,0.00,CLR,SKC,0.00,WeatherDisplay:10.37,2013-02-01 21:53:00,
2013-02-01 16:58:00,19.8,10.2,30.23,West,270,9.0,11.5,66,0.00,CLR,SKC,0.00,WeatherDisplay:10.37,2013-02-01 21:58:00,
2013-02-01 17:03:00,19.4,9.5,30.23,SW,225,3.1,6.9,65,0.00,CLR,SKC,0.00,WeatherDisplay:10.37,2013-02-01 22:03:00,
2013-02-01 17:08:00,19.2,9.4,30.22,SSW,202,8.9,10.4,65,0.00,CLR,SKC,0.00,WeatherDisplay:10.37,2013-02-01 22:08:00,
2013-02-01 17:13:00,19.2,9.7,30.22,SW,225,5.9,12.7,66,0.00,CLR,SKC,0.00,WeatherDisplay:10.37,2013-02-01 22:13:00,
2013-02-01 17:18:00,19.0,9.5,30.23,South,180,5.5,10.4,66,0.00,CLR,SKC,0.00,WeatherDisplay:10.37,2013-02-01 22:18:00,
2013-02-01 17:23:00,19.0,9.5,30.22,WSW,248,7.3,10.4,66,0.00,CLR,SKC,0.00,WeatherDisplay:10.37,2013-02-01 22:23:00,
2013-02-01 17:28:00,18.7,9.2,30.22,SW,225,2.4,6.9,66,0.00,CLR,SKC,0.00,WeatherDisplay:10.37,2013-02-01 22:28:00,
2013-02-01 17:33:00,18.5,9.0,30.22,West,270,5.3,8.1,66,0.00,CLR,SKC,0.00,WeatherDisplay:10.37,2013-02-01 22:33:00,
2013-02-01 17:38:00,18.5,9.0,30.22,WSW,248,7.3,10.4,66,0.00,CLR,SKC,0.00,WeatherDisplay:10.37,2013-02-01 22:38:00,
2013-02-01 17:43:00,18.3,8.9,30.22,WSW,248,5.3,10.4,66,0.00,CLR,SKC,0.00,WeatherDisplay:10.37,2013-02-01 22:43:00,
2013-02-01 17:48:00,18.3,9.2,30.22,WSW,248,5.9,8.1,67,0.00,CLR,SKC,0.00,WeatherDisplay:10.37,2013-02-01 22:48:00,
2013-02-01 17:53:00,18.3,9.2,30.21,SW,225,3.1,6.9,67,0.00,CLR,SKC,0.00,WeatherDisplay:10.37,2013-02-01 22:53:00,
2013-02-01 17:58:00,18.1,9.0,30.21,SSW,202,9.3,10.4,67,0.00,CLR,SKC,0.00,WeatherDisplay:10.37,2013-02-01 22:58:00,
2013-02-01 18:03:00,18.0,8.8,30.21,SW,225,8.3,10.4,67,0.00,CLR,SKC,0.00,WeatherDisplay:10.37,2013-02-01 23:03:00,
2013-02-01 18:08:00,17.8,8.7,30.21,SW,225,5.7,8.3,67,0.00,CLR,SKC,0.00,WeatherDisplay:10.37,2013-02-01 23:08:00,
2013-02-01 18:13:00,17.8,8.7,30.21,WSW,248,4.6,6.9,67,0.00,CLR,SKC,0.00,WeatherDisplay:10.37,2013-02-01 23:13:00,
2013-02-01 18:18:00,17.4,8.3,30.21,WSW,248,5.9,10.4,67,0.00,CLR,SKC,0.00,WeatherDisplay:10.37,2013-02-01 23:18:00,
2013-02-01 18:23:00,17.4,8.7,30.21,WSW,248,4.2,5.8,68,0.00,CLR,SKC,0.00,WeatherDisplay:10.37,2013-02-01 23:23:00,
2013-02-01 18:28:00,17.2,8.5,30.21,SW,225,6.2,6.9,68,0.00,CLR,SKC,0.00,WeatherDisplay:10.37,2013-02-01 23:28:00,
2013-02-01 18:33:00,17.2,8.5,30.21,SW,225,5.0,9.2,68,0.00,CLR,SKC,0.00,WeatherDisplay:10.37,2013-02-01 23:33:00,
2013-02-01 18:38:00,17.2,8.5,30.20,SW,225,5.2,9.2,68,0.00,CLR,SKC,0.00,WeatherDisplay:10.37,2013-02-01 23:38:00,
2013-02-01 18:43:00,17.2,8.5,30.21,South,180,5.5,6.9,68,0.00,CLR,SKC,0.00,WeatherDisplay:10.37,2013-02-01 23:43:00,
2013-02-01 18:48:00,17.2,8.5,30.20,SSW,202,3.3,8.1,68,0.00,CLR,SKC,0.00,WeatherDisplay:10.37,2013-02-01 23:48:00,
2013-02-01 18:53:00,16.9,8.5,30.20,SSW,202,3.7,5.8,69,0.00,CLR,SKC,0.00,WeatherDisplay:10.37,2013-02-01 23:53:00,
2013-02-01 18:58:00,16.9,8.5,30.20,SSW,202,2.3,4.7,69,0.00,CLR,SKC,0.00,WeatherDisplay:10.37,2013-02-01 23:58:00,
2013-02-01 19:03:00,16.7,8.3,30.20,SW,225,1.6,9.2,69,0.00,CLR,SKC,0.00,WeatherDisplay:10.37,2013-02-02 00:03:00,
2013-02-01 19:08:00,16.7,8.3,30.20,SSW,202,3.6,4.6,69,0.00,CLR,SKC,0.00,WeatherDisplay:10.37,2013-02-02 00:08:00,
2013-02-01 19:13:00,16.5,8.4,30.20,SW,225,4.4,6.9,70,0.00,CLR,SKC,0.00,WeatherDisplay:10.37,2013-02-02 00:13:00,
2013-02-01 19:18:00,16.5,8.4,30.21,SSW,202,3.1,4.6,70,0.00,CLR,SKC,0.00,WeatherDisplay:10.37,2013-02-02 00:18:00,
2013-02-01 19:23:00,16.5,8.4,30.20,SSW,202,4.4,6.9,70,0.00,CLR,SKC,0.00,WeatherDisplay:10.37,2013-02-02 00:23:00,
2013-02-01 19:28:00,16.3,8.3,30.20,SW,225,3.8,8.1,70,0.00,CLR,SKC,0.00,WeatherDisplay:10.37,2013-02-02 00:28:00,
2013-02-01 19:33:00,16.3,8.3,30.20,SSW,202,3.9,4.6,70,0.00,CLR,SKC,0.00,WeatherDisplay:10.37,2013-02-02 00:33:00,
2013-02-01 19:38:00,16.3,8.6,30.20,SW,225,1.9,4.6,71,0.00,CLR,SKC,0.00,WeatherDisplay:10.37,2013-02-02 00:38:00,
2013-02-01 19:43:00,16.3,8.6,30.21,SW,225,2.0,3.5,71,0.00,CLR,SKC,0.00,WeatherDisplay:10.37,2013-02-02 00:43:00,
2013-02-01 19:48:00,16.2,8.4,30.21,SSW,202,2.7,5.8,71,0.00,CLR,SKC,0.00,WeatherDisplay:10.37,2013-02-02 00:48:00,
2013-02-01 19:53:00,16.2,8.4,30.21,SW,225,2.5,5.8,71,0.00,CLR,SKC,0.00,WeatherDisplay:10.37,2013-02-02 00:53:00,
2013-02-01 19:58:00,16.2,8.4,30.21,SW,225,3.0,3.5,71,0.00,CLR,SKC,0.00,WeatherDisplay:10.37,2013-02-02 00:58:00,
2013-02-01 20:03:00,16.0,8.5,30.21,SSW,202,3.0,4.2,72,0.00,CLR,SKC,0.00,WeatherDisplay:10.37,2013-02-02 01:03:00,
2013-02-01 20:08:00,16.0,8.5,30.21,SSW,202,3.1,4.6,72,0.00,CLR,SKC,0.00,WeatherDisplay:10.37,2013-02-02 01:08:00,
2013-02-01 20:13:00,16.0,8.5,30.20,SW,225,2.9,3.5,72,0.00,CLR,SKC,0.00,WeatherDisplay:10.37,2013-02-02 01:13:00,
2013-02-01 20:18:00,15.8,8.4,30.21,SSW,202,2.1,4.6,72,0.00,CLR,SKC,0.00,WeatherDisplay:10.37,2013-02-02 01:18:00,
2013-02-01 20:23:00,15.8,8.4,30.20,SSW,202,2.2,3.8,72,0.00,CLR,SKC,0.00,WeatherDisplay:10.37,2013-02-02 01:23:00,
2013-02-01 20:28:00,15.6,8.2,30.20,SSW,202,1.6,3.6,72,0.00,CLR,SKC,0.00,WeatherDisplay:10.37,2013-02-02 01:28:00,
2013-02-01 20:33:00,15.8,8.7,30.19,SW,225,1.5,3.5,73,0.00,CLR,SKC,0.00,WeatherDisplay:10.37,2013-02-02 01:33:00,
2013-02-01 20:38:00,15.8,8.7,30.19,South,180,1.5,3.5,73,0.00,CLR,SKC,0.00,WeatherDisplay:10.37,2013-02-02 01:38:00,
2013-02-01 20:43:00,16.0,8.8,30.19,SW,225,2.2,3.5,73,0.00,CLR,SKC,0.00,WeatherDisplay:10.37,2013-02-02 01:43:00,
2013-02-01 20:48:00,16.3,9.2,30.19,SSW,202,3.2,5.8,73,0.00,CLR,SKC,0.00,WeatherDisplay:10.37,2013-02-02 01:48:00,
2013-02-01 20:53:00,16.3,9.2,30.18,SW,225,3.1,4.6,73,0.00,CLR,SKC,0.00,WeatherDisplay:10.37,2013-02-02 01:53:00,
2013-02-01 20:58:00,16.5,9.4,30.19,SSW,202,2.4,4.6,73,0.00,CLR,SKC,0.00,WeatherDisplay:10.37,2013-02-02 01:58:00,
2013-02-01 21:03:00,16.7,9.5,30.18,SW,225,1.9,3.5,73,0.00,CLR,SKC,0.00,WeatherDisplay:10.37,2013-02-02 02:03:00,
2013-02-01 21:08:00,16.7,9.5,30.18,South,180,2.6,3.5,73,0.00,CLR,SKC,0.00,WeatherDisplay:10.37,2013-02-02 02:08:00,
2013-02-01 21:13:00,16.9,9.7,30.18,SSW,202,1.3,3.5,73,0.00,CLR,SKC,0.00,WeatherDisplay:10.37,2013-02-02 02:13:00,
2013-02-01 21:18:00,16.9,9.7,30.18,SW,225,3.5,6.7,73,0.00,CLR,SKC,0.00,WeatherDisplay:10.37,2013-02-02 02:18:00,
2013-02-01 21:23:00,16.9,9.7,30.18,SW,225,3.0,5.8,73,0.00,CLR,SKC,0.00,WeatherDisplay:10.37,2013-02-02 02:23:00,
2013-02-01 21:28:00,16.9,9.7,30.17,SSW,202,3.0,5.8,73,0.00,CLR,SKC,0.00,WeatherDisplay:10.37,2013-02-02 02:28:00,
2013-02-01 21:33:00,17.1,9.9,30.17,SW,225,2.6,5.8,73,0.00,CLR,SKC,0.00,WeatherDisplay:10.37,2013-02-02 02:33:00,
2013-02-01 21:38:00,17.2,10.1,30.17,SSW,202,4.4,4.6,73,0.00,CLR,SKC,0.00,WeatherDisplay:10.37,2013-02-02 02:38:00,
2013-02-01 21:43:00,17.2,10.4,30.17,WSW,248,3.2,6.9,74,0.00,CLR,SKC,0.00,WeatherDisplay:10.37,2013-02-02 02:43:00,
2013-02-01 21:48:00,17.4,10.5,30.17,SSW,202,2.3,6.0,74,0.00,CLR,SKC,0.00,WeatherDisplay:10.37,2013-02-02 02:48:00,
2013-02-01 21:53:00,17.4,10.5,30.17,SSE,158,3.5,4.2,74,0.00,CLR,SKC,0.00,WeatherDisplay:10.37,2013-02-02 02:53:00,
2013-02-01 21:58:00,17.6,10.7,30.17,WSW,248,4.2,4.6,74,0.00,CLR,SKC,0.00,WeatherDisplay:10.37,2013-02-02 02:58:00,
2013-02-01 22:03:00,17.8,10.9,30.17,SSW,202,3.1,5.1,74,0.00,CLR,SKC,0.00,WeatherDisplay:10.37,2013-02-02 03:03:00,
2013-02-01 22:08:00,17.8,10.9,30.17,SW,225,2.2,4.6,74,0.00,CLR,SKC,0.00,WeatherDisplay:10.37,2013-02-02 03:08:00,
2013-02-01 22:13:00,17.8,10.9,30.17,SSW,202,5.6,8.1,74,0.00,CLR,SKC,0.00,WeatherDisplay:10.37,2013-02-02 03:13:00,
2013-02-01 22:18:00,18.0,11.1,30.16,SSW,202,3.4,8.1,74,0.00,CLR,SKC,0.00,WeatherDisplay:10.37,2013-02-02 03:18:00,
2013-02-01 22:23:00,18.1,10.9,30.16,South,180,4.0,6.9,73,0.00,CLR,SKC,0.00,WeatherDisplay:10.37,2013-02-02 03:23:00,
2013-02-01 22:28:00,18.1,10.9,30.16,SSE,158,1.4,4.6,73,0.00,CLR,SKC,0.00,WeatherDisplay:10.37,2013-02-02 03:28:00,
2013-02-01 22:33:00,18.3,11.1,30.16,South,180,3.6,9.2,73,0.00,CLR,SKC,0.00,WeatherDisplay:10.37,2013-02-02 03:33:00,
2013-02-01 22:38:00,18.3,11.4,30.16,SW,225,3.1,15.0,74,0.00,CLR,SKC,0.00,WeatherDisplay:10.37,2013-02-02 03:38:00,
2013-02-01 22:43:00,18.3,11.4,30.16,ESE,112,5.3,11.5,74,0.00,CLR,SKC,0.00,WeatherDisplay:10.37,2013-02-02 03:43:00,
2013-02-01 22:48:00,18.5,11.6,30.16,South,180,2.4,6.9,74,0.00,CLR,SKC,0.00,WeatherDisplay:10.37,2013-02-02 03:48:00,
2013-02-01 22:53:00,18.5,11.6,30.15,SSW,202,3.5,9.2,74,0.00,CLR,SKC,0.00,WeatherDisplay:10.37,2013-02-02 03:53:00,
2013-02-01 22:58:00,18.7,11.8,30.15,WSW,248,3.7,8.1,74,0.00,CLR,SKC,0.00,WeatherDisplay:10.37,2013-02-02 03:58:00,
2013-02-01 23:03:00,18.7,11.8,30.15,SW,225,4.4,6.9,74,0.00,CLR,SKC,0.00,WeatherDisplay:10.37,2013-02-02 04:03:00,
2013-02-01 23:08:00,18.9,11.9,30.15,SSW,202,2.8,5.8,74,0.00,CLR,SKC,0.00,WeatherDisplay:10.37,2013-02-02 04:08:00,
2013-02-01 23:13:00,18.9,11.9,30.15,South,180,5.8,12.7,74,0.00,CLR,SKC,0.00,WeatherDisplay:10.37,2013-02-02 04:13:00,
2013-02-01 23:18:00,18.9,11.9,30.15,SE,135,5.6,9.2,74,0.00,CLR,SKC,0.00,WeatherDisplay:10.37,2013-02-02 04:18:00,
2013-02-01 23:23:00,19.0,12.1,30.15,SSW,202,7.2,10.4,74,0.00,CLR,SKC,0.00,WeatherDisplay:10.37,2013-02-02 04:23:00,
2013-02-01 23:28:00,19.0,12.1,30.14,SSW,202,2.3,5.1,74,0.00,CLR,SKC,0.00,WeatherDisplay:10.37,2013-02-02 04:28:00,
2013-02-01 23:33:00,19.2,12.3,30.14,SSW,202,2.9,6.0,74,0.00,CLR,SKC,0.00,WeatherDisplay:10.37,2013-02-02 04:33:00,
2013-02-01 23:38:00,19.2,12.3,30.15,SW,225,2.7,4.6,74,0.00,CLR,SKC,0.00,WeatherDisplay:10.37,2013-02-02 04:38:00,
2013-02-01 23:43:00,19.2,12.3,30.15,SW,225,2.6,8.1,74,0.00,CLR,SKC,0.00,WeatherDisplay:10.37,2013-02-02 04:43:00,
2013-02-01 23:48:00,19.4,12.5,30.14,SW,225,4.8,5.8,74,0.00,CLR,SKC,0.00,WeatherDisplay:10.37,2013-02-02 04:48:00,
2013-02-01 23:53:00,19.6,12.6,30.15,SW,225,5.3,8.1,74,0.00,CLR,SKC,0.00,WeatherDisplay:10.37,2013-02-02 04:53:00,
2013-02-01 23:58:00,19.8,12.8,30.15,South,180,6.7,9.2,74,0.00,CLR,SKC,0.00,WeatherDisplay:10.37,2013-02-02 04:58:00,